Location: Bittelbronn
(48.4454°N, 8.5870°E)
Time: 16:20:01
(UTC+00:00)

SJ 16-02 - Visible Passes

Search period start: 20 April 2025 00:00
Search period end: 30 April 2025 00:00
Orbit: 588 x 597 km, 75.0° (Epoch: 20 April)

Date Brightness Start Highest point End Pass type
(mag) Time Alt. Az. Time Alt. Az. Time Alt. Az.
20 Apr 1.2 19:55:52 10° NNW 20:00:13 76° ENE 20:02:45 24° SSE visible
20 Apr 3.9 21:35:57 10° WNW 21:37:46 12° W 21:39:22 10° WSW visible
21 Apr 1.5 20:04:53 10° NNW 20:09:12 69° WSW 20:12:01 21° S visible
22 Apr 2.3 20:14:00 10° NNW 20:18:07 43° WSW 20:21:20 15° S visible
23 Apr 3.1 20:23:17 10° NW 20:26:58 27° W 20:30:37 10° SSW visible
24 Apr 3.7 20:32:49 10° NW 20:35:45 18° W 20:38:40 10° SW visible
25 Apr 1.3 19:02:37 10° NNW 19:06:59 82° ENE 19:11:18 10° SSE visible
25 Apr 4.1 20:43:04 10° WNW 20:44:28 11° W 20:45:51 10° WSW visible
26 Apr 1.8 19:11:38 10° NNW 19:15:56 63° WSW 19:20:11 10° S visible
27 Apr 2.6 19:20:45 10° NW 19:24:48 39° WSW 19:28:49 10° S visible
28 Apr 3.4 19:30:02 10° NW 19:33:36 25° W 19:37:10 10° SSW visible
29 Apr 4.0 19:39:36 10° WNW 19:42:21 17° W 19:45:05 10° SW visible
